Location: Bishausen
(51.6334°N, 9.9631°E)
Time: 09:31:34
(UTC+00:00)

Cosmos 2082 Rocket - Pass Details

Date: 23 May 2024
Orbit: 832 x 853 km, 71.0° (Epoch: 23 June)

Event Time Altitude Azimuth Distance (km) Brightness Sun altitude
Exits shadow 01:48:35 - 249° (WSW) 2,661 4.3 -10.5°
Reaches altitude 10° 01:49:07 10° 252° (WSW) 2,484 4.2 -10.4°
Maximum altitude 01:54:15 33° 316° (NW) 1,401 3.5 -9.9°
Drops below altitude 10° 01:59:24 10° 20° (NNE) 2,492 6.0 -9.5°
Sets 02:02:07 0° 30° (NNE) 3,429 7.5 -9.2°
